Stations météo

Publicité
Lorient Lan Bihoue, France (7205): Température de l'air & dewpoint: 16.01.2019 02:00:00 - 22.01.2019 02:00:00 (CET)Lorient Lan Bihoue, France (7205): Température de l'air 5cm: 16.01.2019 02:00:00 - 22.01.2019 02:00:00 (CET)Lorient Lan Bihoue, France (7205): Température de l'air -20cm: 16.01.2019 02:00:00 - 22.01.2019 02:00:00 (CET)Lorient Lan Bihoue, France (7205): Vitesse du vent & gusts: 16.01.2019 02:00:00 - 22.01.2019 02:00:00 (CET)Lorient Lan Bihoue, France (7205): Direction du vent: 16.01.2019 02:00:00 - 22.01.2019 02:00:00 (CET)Lorient Lan Bihoue, France (7205): reduced air pressure: 16.01.2019 02:00:00 - 22.01.2019 02:00:00 (CET)Lorient Lan Bihoue, France (7205): visibility: 16.01.2019 02:00:00 - 22.01.2019 02:00:00 (CET)Lorient Lan Bihoue, France (7205): Ensoleillement: 16.01.2019 02:00:00 - 22.01.2019 02:00:00 (CET)Lorient Lan Bihoue, France (7205): Quantités de précipitations: 16.01.2019 02:00:00 - 22.01.2019 02:00:00 (CET)
Date & Time tt [°C] td [°C] tt 5cm [°C] tt -20cm [°C] ff [km/h] ff [knt] fx [km/h] fx [knt] dd ppp [hPa] vv [km] sd [min] rr [mm]
22.01.2019 02:00:00 8,7 6,7 7,2 6,7 23 13 35 19 WSW 1013,8 18 0 0,2
22.01.2019 01:00:00 8,2 6,0 7,1 6,7 25 14 40 22 SW 1015,5 18 0 0,2
22.01.2019 00:00:00 8,5 5,2 7,0 6,6 23 12 40 22 WSW 1016,9 55 0 0,0
21.01.2019 23:00:00 8,2 4,8 7,0 6,6 22 12 39 21 SW 1017,9 52 0 0,0
21.01.2019 22:00:00 7,7 3,4 5,1 6,7 21 11 33 18 SSW 1019,4 60 0 0,0
21.01.2019 21:00:00 5,9 2,5 3,2 6,6 14 8 23 12 SSW 1020,1 58 0 0,0
21.01.2019 20:00:00 5,6 2,6 3,4 6,6 11 6 16 9 SW 1021,2 43 0 0,0
21.01.2019 19:00:00 5,8 2,6 3,3 6,5 9 5 15 8 SW 1022,5 36 0 0,0
21.01.2019 18:00:00 5,1 1,9 3,7 6,5 8 5 13 7 WSW 1022,9 21 0 0,0
21.01.2019 17:00:00 6,4 2,1 6,2 6,5 9 5 18 10 SW 1023,2 27 12 0,0
21.01.2019 16:00:00 7,1 1,6 8,6 6,3 10 6 15 8 WSW 1023,8 20 55 0,0
21.01.2019 15:00:00 7,5 0,9 10,4 6,3 9 5 16 9 WSW 1024,2 21 60 0,0
21.01.2019 14:00:00 8,1 1,2 11,6 6,2 4 2 10 5 SW 1024,7 25 60 0,0
21.01.2019 13:00:00 8,2 1,8 8,5 6,4 2 1 8 5 SE 1025,6 19 60 0,0
21.01.2019 12:00:00 5,6 2,1 6,2 6,4 6 4 9 5 NE 1026,4 12 60 0,0
21.01.2019 11:00:00 3,8 1,5 1,9 6,5 5 3 12 6 E 1026,2 9 60 0,0
21.01.2019 10:00:00 0,7 -0,5 -4,4 6,5 7 4 11 6 N 1026,0 3,7 42 0,0
21.01.2019 09:00:00 -0,3 -0,7 -4,9 6,7 4 2 11 6 N 1025,7 5 0 0,0
21.01.2019 08:00:00 0,2 -0,5 -4,1 6,8 3 1 11 6 NNW 1025,6 4,8 0 0,0
21.01.2019 07:00:00 -0,1 -1,0 -3,9 6,8 9 5 14 8 NNW 1025,5 7 0 0,0
21.01.2019 06:00:00 0,1 -0,6 -4,0 6,9 9 5 15 8 NNW 1025,5 8 0 0,0
21.01.2019 05:00:00 -0,4 -1,0 -4,3 7,0 6 3 8 4 NNW 1025,1 3,5 0 0,0
21.01.2019 04:00:00 0,4 -0,5 -3,7 7,0 2 1 7 4 N 1025,3 5 0 0,0
21.01.2019 03:00:00 1,7 0,1 -2,7 7,1 3 2 5 3 N 1024,8 3,7 0 0,0
21.01.2019 02:00:00 0,9 -0,9 -1,1 7,2 5 3 16 9 NNE 1024,7 10 0 0,0
21.01.2019 01:00:00 3,1 0,7 1,4 7,3 9 5 20 11 NNE 1024,1 12 0 0,0
21.01.2019 00:00:00 3,1 1,0 1,6 7,2 15 8 23 12 NNE 1023,7 14 0 0,0
20.01.2019 23:00:00 3,1 1,5 1,5 7,4 11 6 22 12 N 1023,4 16 0 0,0
20.01.2019 22:00:00 3,2 1,7 1,6 7,4 12 6 26 14 NNE 1022,7 20 0 0,0
20.01.2019 21:00:00 3,8 2,5 1,7 7,4 11 6 16 9 N 1022,2 20 0 0,0
20.01.2019 20:00:00 4,3 2,6 1,8 7,4 8 4 16 9 N 1021,3 24 0 0,0
20.01.2019 19:00:00 5,8 3,5 4,0 7,4 11 6 16 9 NNE 1020,4 35 0 0,0
20.01.2019 18:00:00 7,1 4,2 6,5 7,1 10 5 23 13 N 1019,7 40 0 0,0
20.01.2019 17:00:00 8,0 3,8 7,7 7,1 16 9 29 16 NNE 1018,7 57 0 0,0
20.01.2019 16:00:00 9,1 4,9 8,1 7,1 11 6 18 10 N 1017,7 39 17 0,0
20.01.2019 15:00:00 8,7 5,1 8,6 7,0 11 6 18 10 NE 1017,3 32 4 0,0
20.01.2019 14:00:00 8,9 5,3 8,4 6,9 9 5 28 15 NNE 1017,2 33 2 0,0
20.01.2019 13:00:00 9,0 5,7 9,8 6,9 14 8 22 12 NNE 1017,1 31 50 0,0
20.01.2019 12:00:00 8,7 6,3 8,1 6,9 12 7 21 11 N 1016,7 18 60 0,0
20.01.2019 11:00:00 6,7 5,2 4,8 7,2 8 4 18 10 NNW 1015,8 18 49 0,0
20.01.2019 10:00:00 5,0 4,9 0,0 7,1 11 6 18 10 NE 1014,5 19 11 0,0
20.01.2019 09:00:00 2,4 2,3 -1,0 7,2 8 4 13 7 NNW 1013,9 7 0 0,0
20.01.2019 08:00:00 1,5 1,4 -1,4 7,5 9 5 12 7 NNW 1013,1 6 0 0,0
20.01.2019 07:00:00 0,7 0,6 -1,4 7,3 5 3 11 6 NNW 1012,4 1,0 0 0,0
20.01.2019 06:00:00 1,2 0,9 -0,1 7,4 9 5 16 9 N 1011,7 1,6 0 0,0
20.01.2019 05:00:00 2,1 1,7 -0,3 7,4 6 3 16 9 N 1011,4 1,9 0 0,0
20.01.2019 04:00:00 3,8 3,5 1,6 7,5 9 5 14 8 N 1010,9 11 0 0,0
20.01.2019 03:00:00 3,8 3,4 1,9 7,6 8 4 15 8 NNW 1010,4 14 0 0,0
20.01.2019 02:00:00 3,8 3,5 0,3 7,6 9 5 12 7 NNW 1009,9 14 0 0,0
20.01.2019 01:00:00 3,4 3,0 0,1 7,7 6 4 11 6 NW 1009,8 11 0 0,0
20.01.2019 00:00:00 4,4 4,1 0,1 7,7 4 2 10 5 NW 1009,3 15 0 0,0
19.01.2019 23:00:00 5,1 4,8 0,7 7,7 5 3 6 3 WNW 1008,9 0,4 0 0,0
19.01.2019 22:00:00 5,5 5,1 3,0 7,7 0 0 4 2 N 1008,5 1,0 0 0,0
19.01.2019 21:00:00 6,0 5,6 2,2 7,7 3 1 5 3 WSW 1008,2 16 0 0,0
19.01.2019 20:00:00 6,6 5,9 3,7 7,7 2 1 9 5 WNW 1008,0 31 0 0,0
19.01.2019 19:00:00 6,9 5,8 4,7 7,7 8 4 13 7 W 1007,7 13 0 0,4
19.01.2019 18:00:00 7,0 5,1 6,1 7,6 6 3 22 12 SSW 1007,4 57 0 1,0
19.01.2019 17:00:00 9,3 4,5 9,0 7,5 15 8 26 14 NW 1007,0 20 32 0,0
19.01.2019 16:00:00 10,7 6,3 10,8 7,3 16 9 23 12 WSW 1007,0 45 50 0,0
19.01.2019 15:00:00 9,9 7,0 9,5 7,3 9 5 16 9 WSW 1007,1 20 0 0,0
19.01.2019 14:00:00 9,6 5,9 9,4 7,2 10 6 19 11 SSW 1007,7 50 41 0,0
19.01.2019 13:00:00 10,3 6,1 7,5 7,2 8 4 17 9 SW 1008,4 48 25 0,2
19.01.2019 12:00:00 8,4 6,7 8,0 7,1 14 7 21 11 W 1009,0 8 16 0,6
19.01.2019 11:00:00 8,4 7,8 5,3 7,2 2 1 6 3 ESE 1008,9 20 29 0,0
19.01.2019 10:00:00 5,7 5,6 1,1 7,3 4 2 15 8 WNW 1008,8 16 0 0,0
19.01.2019 09:00:00 2,8 2,7 -0,2 7,2 2 1 5 3 E 1008,7 0,4 0 0,0
19.01.2019 08:00:00 3,9 3,8 1,2 7,3 0 0 9 5 N 1008,5 0,2 0 0,0
19.01.2019 07:00:00 4,7 4,6 2,6 7,2 0 0 8 5 N 1008,5 2,2 0 0,2
19.01.2019 06:00:00 5,1 5,0 3,3 7,3 3 1 9 5 S 1008,8 3,1 0 0,0
19.01.2019 05:00:00 5,8 5,7 2,1 7,4 4 2 9 5 SE 1009,1 1,2 0 3,2
19.01.2019 04:00:00 4,3 4,2 2,5 7,5 4 2 8 4 SE 1009,5 0,4 0 0,0
19.01.2019 03:00:00 4,8 4,7 0,7 7,5 4 2 22 12 SSE 1009,8 3,2 0 0,8
19.01.2019 02:00:00 3,3 3,0 -0,2 7,6 5 3 6 3 E 1010,2 0,2 0 0,0
19.01.2019 01:00:00 3,5 3,2 -0,5 7,6 3 2 4 2 ENE 1010,7 0,3 0 0,0
19.01.2019 00:00:00 4,7 4,4 -0,4 7,6 2 1 7 4 NNE 1010,7 0,1 0 0,0
18.01.2019 23:00:00 5,7 5,4 0,8 7,7 4 2 13 7 NW 1010,7 0,6 0 0,0
18.01.2019 22:00:00 5,6 5,0 3,5 7,6 10 5 23 12 W 1010,5 22 0 0,2
18.01.2019 21:00:00 7,4 6,8 5,9 7,5 11 6 18 10 SSW 1009,9 29 0 0,0
18.01.2019 20:00:00 8,6 7,8 8,0 7,4 15 8 33 18 S 1010,3 3,4 0 2,4
18.01.2019 19:00:00 9,0 8,2 8,3 7,4 23 12 32 17 S 1010,6 16 0 0,4
18.01.2019 18:00:00 8,8 7,9 7,9 7,4 21 11 39 21 S 1011,2 18 0 4,5
18.01.2019 17:00:00 8,6 7,5 7,8 7,3 24 13 39 21 SSE 1011,5 17 0 1,8
18.01.2019 16:00:00 8,6 6,6 7,8 7,1 28 15 46 25 S 1012,6 6 0 0,6
18.01.2019 15:00:00 9,3 6,0 9,2 7,2 28 15 44 24 S 1013,2 38 0 0,0
18.01.2019 14:00:00 9,3 5,7 8,5 7,1 27 15 42 23 S 1013,9 42 0 0,0
18.01.2019 13:00:00 8,3 6,6 7,0 7,1 22 12 35 19 SSE 1015,1 19 0 0,0
18.01.2019 12:00:00 6,7 5,0 4,8 7,1 16 9 28 15 SSE 1016,1 19 0 0,0
18.01.2019 11:00:00 4,4 1,9 4,0 7,4 14 7 22 12 ESE 1016,6 26 0 0,0
18.01.2019 10:00:00 3,6 1,3 2,4 7,4 14 8 21 12 ESE 1017,0 28 9 0,0
18.01.2019 09:00:00 2,7 0,4 1,6 7,1 14 7 21 11 ESE 1017,4 28 0 0,0
18.01.2019 08:00:00 2,6 0,2 0,7 7,2 13 7 17 9 E 1017,7 28 0 0,0
18.01.2019 07:00:00 2,0 -0,3 0,7 7,5 13 7 18 10 E 1018,1 28 0 0,0
18.01.2019 06:00:00 2,5 0,1 0,6 7,4 12 7 18 10 E 1018,7 27 0 0,0
18.01.2019 05:00:00 1,5 -0,1 0,1 7,5 9 5 13 7 E 1019,2 19 0 0,0
18.01.2019 04:00:00 1,0 -0,6 -0,9 7,6 9 5 11 6 E 1019,9 17 0 0,0
18.01.2019 03:00:00 1,2 -0,7 -0,9 7,6 6 3 9 5 ENE 1020,5 16 0 0,0
18.01.2019 02:00:00 1,2 -0,4 -0,8 7,7 7 4 9 5 E 1020,4 13 0 0,0
18.01.2019 01:00:00 1,2 -0,9 -1,3 7,8 5 3 9 5 NE 1021,0 11 0 0,0
18.01.2019 00:00:00 1,3 -0,6 -0,9 7,8 5 3 7 4 ENE 1021,1 15 0 0,0
17.01.2019 23:00:00 1,5 -0,7 -0,9 7,8 0 0 6 3 N 1021,3 19 0 0,0
17.01.2019 22:00:00 2,1 -0,7 -0,9 8,0 4 2 6 3 NNW 1021,0 17 0 0,0
17.01.2019 21:00:00 2,5 -0,4 -1,4 8,1 4 2 5 3 N 1020,7 19 0 0,0
17.01.2019 20:00:00 3,9 0,1 -1,0 7,9 4 2 8 4 N 1020,4 33 0 0,0
17.01.2019 19:00:00 5,2 0,6 0,6 8,1 7 4 12 7 N 1019,7 44 0 0,0
17.01.2019 18:00:00 5,8 2,3 4,2 8,0 8 5 21 11 N 1019,3 47 10 0,0
17.01.2019 17:00:00 8,0 2,4 7,5 8,0 15 8 27 15 N 1018,7 46 29 0,0
17.01.2019 16:00:00 8,0 3,1 7,7 7,9 10 5 39 21 NW 1017,8 50 26 0,0
17.01.2019 15:00:00 9,7 3,9 10,3 7,9 13 7 30 16 N 1017,3 45 46 0,0
17.01.2019 14:00:00 9,6 4,2 10,0 7,9 11 6 34 18 NNW 1017,2 33 43 0,0
17.01.2019 13:00:00 9,2 3,8 9,9 7,9 23 12 43 23 NW 1017,4 19 52 0,0
17.01.2019 12:00:00 9,1 3,3 9,1 8,0 19 10 33 18 NW 1017,4 20 60 0,0
17.01.2019 11:00:00 7,9 3,7 5,5 8,1 13 7 19 11 WNW 1017,0 23 60 0,0
17.01.2019 10:00:00 4,8 2,8 0,6 8,1 10 5 16 8 W 1016,2 44 38 0,0
17.01.2019 09:00:00 3,1 0,8 0,4 8,2 10 6 22 12 W 1015,5 49 0 0,0
17.01.2019 08:00:00 4,3 1,5 1,4 8,3 10 6 18 10 NW 1015,0 50 0 0,0
17.01.2019 07:00:00 4,8 2,0 1,7 8,4 12 6 18 10 WNW 1014,2 46 0 0,0
17.01.2019 06:00:00 4,6 2,1 2,0 8,4 11 6 24 13 W 1013,6 47 0 0,0
17.01.2019 05:00:00 5,4 2,9 3,5 8,4 14 8 33 18 WNW 1013,1 48 0 0,2
17.01.2019 04:00:00 6,9 3,1 4,0 8,5 20 11 40 22 WNW 1012,6 15 0 0,2
17.01.2019 03:00:00 6,7 3,3 4,2 8,6 15 8 35 19 WNW 1012,1 40 0 0,0
17.01.2019 02:00:00 6,7 3,5 4,3 8,6 16 9 29 16 W 1011,8 40 0 0,0
17.01.2019 01:00:00 6,3 3,8 3,8 8,7 16 9 28 15 W 1011,8 39 0 0,0
17.01.2019 00:00:00 6,3 3,8 3,1 8,7 14 8 39 21 WNW 1011,8 57 0 0,2
16.01.2019 23:00:00 6,5 3,3 3,8 8,7 13 7 29 16 W 1011,6 45 0 0,0
16.01.2019 22:00:00 6,2 5,0 3,7 8,7 11 6 17 9 W 1011,4 37 0 0,0
16.01.2019 21:00:00 7,5 6,1 6,3 8,7 13 7 18 10 W 1011,1 39 0 0,0
16.01.2019 20:00:00 7,7 6,8 6,9 8,7 10 6 19 10 W 1010,6 45 0 0,0
16.01.2019 19:00:00 8,2 6,8 7,6 8,6 14 7 34 19 WNW 1010,1 13 0 0,2
16.01.2019 18:00:00 9,6 8,0 9,0 8,6 19 10 33 18 NW 1009,1 10 0 0,4
16.01.2019 17:00:00 10,0 8,8 9,7 8,6 16 9 34 19 WSW 1009,1 37 8 0,0
16.01.2019 16:00:00 9,9 9,3 9,7 8,5 24 13 45 24 WSW 1009,3 19 0 0,6
16.01.2019 15:00:00 10,2 8,8 9,9 8,5 20 11 37 20 SW 1009,5 15 0 0,0
16.01.2019 14:00:00 9,9 7,8 9,9 8,6 23 12 37 20 SW 1010,3 20 0 0,0
16.01.2019 13:00:00 9,6 7,2 8,8 8,3 22 12 34 18 SW 1011,1 40 0 0,0
16.01.2019 12:00:00 9,6 5,9 9,6 8,4 23 12 34 18 SW 1012,1 41 0 0,0
16.01.2019 11:00:00 10,2 5,6 8,8 8,3 17 9 27 14 SW 1012,3 40 0 0,0
16.01.2019 10:00:00 9,1 4,7 8,5 8,5 14 7 29 16 SW 1012,8 42 0 0,0
16.01.2019 09:00:00 9,0 3,6 8,3 8,5 16 9 30 16 SW 1012,9 49 0 0,0
16.01.2019 08:00:00 8,8 3,6 8,2 8,5 21 11 29 15 WSW 1013,2 46 0 0,0
16.01.2019 07:00:00 8,7 4,1 8,0 8,5 18 10 31 17 WSW 1013,7 47 0 0,0
16.01.2019 06:00:00 8,5 3,7 7,8 8,4 19 10 32 17 SW 1014,6 45 0 0,0
16.01.2019 05:00:00 8,2 3,2 7,3 8,5 16 9 26 14 SW 1015,3 45 0 0,0
16.01.2019 04:00:00 7,7 3,5 7,2 8,6 10 5 22 12 SSW 1016,3 40 0 0,0
16.01.2019 03:00:00 7,7 3,4 7,0 8,6 12 7 23 12 S 1016,9 39 0 0,0
16.01.2019 02:00:00 7,5 3,0 6,7 8,5 12 7 22 12 S 1018,1 39 0 0,0

tt = Température de l'air
td = dewpoint
tt 5cm = Température de l'air 5cm
tt -20cm = Température de l'air -20cm
ff = Vitesse du vent
fx = gusts
dd = Direction du vent
ppp = reduced air pressure
vv = visibility
sd = Ensoleillement
rr = Quantités de précipitations

stations d'obs. à proximité